Regional Weather Roundup
Issued by NWS Goodland, KS

Home | Current Version | Previous Version | Graphics & Text | Print | Product List | Glossary On
Versions: 1 2 3 4 5 6 7 8 9 10 11 12 13 14 15 16 17 18 19 20 21 22 23 24 25 26 27 28 29 30 31 32 33 34 35 36 37 38 39 40 41 42 43 44 45 46 47 48 49 50
000
ASUS43 KGLD 280059
RWRGLD

GOODLAND FORECAST AREA HOURLY WEATHER ROUNDUP
NATIONAL WEATHER SERVICE GOODLAND KS
700 PM MDT WED AUG 27 2014

...OFFICIAL OBSERVATIONS...

CITY           SKY/WX    TMP DP  RH WIND       PRES   REMARKS
GOODLAND KS    MOCLDY    72  65  78 E18       30.01R
HILL CITY KS   LGT RAIN  72  67  84 E14       29.99R
IMPERIAL NEB   RAIN      71  65  81 SE25G32   29.99S
MCCOOK NEB     MOCLDY    70  67  90 SE12      30.00F
AKRON CO       MOCLDY    69  60  73 NE18      30.03S
BURLINGTON CO  CLEAR     78  62  57 SE7       30.00F
LIMON CO       MOCLDY    71  50  47 NW23G29   30.06S
$$

...UNOFFICIAL OBSERVATIONS...

CITY           SKY/WX    TMP DP  RH WIND       PRES   REMARKS
COLBY KS       LGT RAIN  70  70 100 E15       30.02F
GOVE KS          N/A     72  32  23 CALM        N/A
NORTON KS      RAIN      68  64  88 E10       30.01S
SHARON SPRINGS   N/A     74  68  80 SE14G23     N/A
WAKEENEY KS      N/A     74  70  89 MISG        N/A
KIT CARSON CO    N/A     81  54  39 MISG        N/A
YUMA CO          N/A     72  63  73 E7          N/A
$$


USA.gov is the U.S. government's official web portal to all federal, state and local government web resources and services.